www.pogodaiklimat.ru
ПОГОДА в Батмане
Время
(UTC), дата
08 22.05
07 22.05
09 22.05
10 22.05
11 22.05
12 22.05
14 22.05
13 22.05
15 22.05
16 22.05
17 22.05
18 22.05
20 22.05
19 22.05
21 22.05
22 22.05
23 22.05
00 23.05
02 23.05
01 23.05
03 23.05
04 23.05
05 23.05
06 23.05
08 23.05
07 23.05
09 23.05
10 23.05
11 23.05
12 23.05
14 23.05
13 23.05
15 23.05
16 23.05
17 23.05
18 23.05
20 23.05
19 23.05
21 23.05
22 23.05
23 23.05
00 24.05
02 24.05
01 24.05
03 24.05
04 24.05
05 24.05
06 24.05
08 24.05
07 24.05
09 24.05
10 24.05
11 24.05
12 24.05
14 24.05
13 24.05
15 24.05
16 24.05
17 24.05
18 24.05
20 24.05
19 24.05
21 24.05
22 24.05
23 24.05
00 25.05
02 25.05
01 25.05
03 25.05
04 25.05
05 25.05
06 25.05
08 25.05
07 25.05
09 25.05
10 25.05
11 25.05
12 25.05
14 25.05
13 25.05
15 25.05
16 25.05
17 25.05
18 25.05
20 25.05
19 25.05
21 25.05
22 25.05
23 25.05
00 26.05
02 26.05
01 26.05
03 26.05
04 26.05
05 26.05
06 26.05
08 26.05
07 26.05
09 26.05
10 26.05
11 26.05
12 26.05
14 26.05
13 26.05
15 26.05
16 26.05
17 26.05
18 26.05
20 26.05
19 26.05
21 26.05
22 26.05
23 26.05
00 27.05
02 27.05
01 27.05
03 27.05
04 27.05
05 27.05
06 27.05
08 27.05
07 27.05
09 27.05
10 27.05
11 27.05
12 27.05
14 27.05
13 27.05
15 27.05
16 27.05
17 27.05
18 27.05
20 27.05
19 27.05
21 27.05
22 27.05
23 27.05
00 28.05
02 28.05
01 28.05
03 28.05
04 28.05
05 28.05
06 28.05
08 28.05
07 28.05
09 28.05
10 28.05
11 28.05
12 28.05
14 28.05
13 28.05
15 28.05
16 28.05
17 28.05
18 28.05
20 28.05
19 28.05
21 28.05
22 28.05
23 28.05
00 29.05
02 29.05
01 29.05
03 29.05
04 29.05
05 29.05
06 29.05
07 29.05
Ветер
(напр.,м/с)
Видим. Явления Облачность Т
(С)
Тd
(С)
f
(%)
Тe
(С)
Тes
(С)
Комфортность P
(гПа)
Po
(гПа)
Тmin
(С)
Tmax
(С)
R
(мм)
R24
(мм)
S
(см)
штиль 0 20 км 1/0
[Ci fib]
+33.1 +15.5 35 +35 +60 опасность
солнечного
удара
1006.5 939.6
штиль 0 20 км ясно +29.2 +15.8 44 +32 +53 опасность
солнечного
удара
1007.0 939.7
З 2
{5}
20 км 1/0
[Ci fib]
+33.5 +12.3 28 +34 +55 опасность
солнечного
удара
1006.4 939.6
З 2 20 км 4/0
[Cs]
+35.2 +10.8 23 +35 +54 опасность
солнечного
удара
1005.6 939.1
З 3 20 км 5/1 1000 м
[Cu med, cong Cs]
+35.7 +10.1 21 +35 +47 очень
жарко
1005.6 938.8
ЮЗ 4
{9}
20 км 5/1 1200 м
[Cu med, cong Cs]
+34.3 +5.7 17 +32 +40 жарко 1005.6 938.6
З 2 20 км 5/1 1000 м
[Cu med, cong Cs]
+33.5 +7.5 20 +32 +36 жарко 1005.2 938.0
ЮЗ 4 20 км 5/1 1000 м
[Cu med, cong Cs]
+34.3 +4.9 16 +32 +37 жарко 1005.5 938.3
СЗ 2
{11}
20 км 5/1 1200 м
[Cu med, cong Cs]
+31.9 +7.8 22 +31 +32 жарко 1004.7 937.3
ЮВ 2 20 км 5/1 1000 м
[Cu med, cong Cs]
+26.3 +12.3 42 +28 +28 жарко 1004.9 937.3
СВ 1 20 км 9/3 1000 м
[Cu med, cong Ac trans Cs]
+24.6 +12.9 48 +27 +27 жарко 1004.3 937.1
ЮВ 1
{11}
20 км 9/3 1200 м
[Cu med, cong Ac trans Cs]
+21.9 +12.7 56 +24 +24 комфорт 1004.4 937.2 +36.0
штиль 0 20 км 9/3 1000 м
[Cu med, cong Ac trans Cs]
+22.8 +9.0 41 +24 +24 комфорт 1002.4 936.3
В 1 20 км 9/3 1000 м
[Cu med, cong Ac trans Cs]
+21.6 +10.3 49 +23 +23 комфорт 1003.6 936.8
З 2
{4}
20 км 9/3 1200 м
[Cu med, cong Ac trans Cs]
+24.2 +11.0 43 +25 +25 комфорт 1002.2 936.3
ЮЗ 2 20 км 9/3 1000 м
[Cu med, cong Ac trans Cs]
+25.1 +6.4 30 +25 +25 комфорт 1001.8 936.2
ЮЗ 2 20 км 9/3 1000 м
[Cu med, cong Ac trans Cs]
+22.9 +2.9 27 +23 +23 комфорт 1001.9 936.1
СЗ 1
{7}
20 км 9/3 1200 м
[Cu med, cong Ac trans Cs]
+21.3 +6.7 39 +22 +22 комфорт 1002.8 936.6
СЗ 1 20 км 9/3 1000 м
[Cu med, cong Ac trans Cs]
+19.7 +8.4 48 +22 +22 комфорт 1004.3 937.7
З 1 20 км 9/3 1000 м
[Cu med, cong Ac trans Cs]
+19.7 +8.4 48 +22 +22 комфорт 1003.5 937.1
ЮЗ 2
{4}
20 км 9/3 1200 м
[Cu med, cong Ac trans Cs]
+20.3 +7.5 44 +22 +22 комфорт 1004.4 937.7
З 1 20 км 9/0
[Ac und Cs]
+20.0 +8.2 47 +22 +24 комфорт 1006.2 938.7
З 1 20 км 9/0
[Ac und Cs]
+19.8 +9.3 51 +22 +27 комфорт 1007.2 939.4
СЗ 1
{4}
20 км 9/5 1200 м
[Sc Ac trans]
+20.9 +10.8 52 +24 +28 комфорт 1007.1 939.2 +19.5
З 1 20 км 8/5 1000 м
[Cu med, cong Ac trans]
+24.0 +10.6 43 +25 +32 комфорт 1007.0 939.5
З 2 20 км 8/5 1000 м
[Cu med, cong Ac trans]
+23.2 +11.4 47 +25 +31 комфорт 1007.7 940.0
З 2
{4}
20 км 6/4 1200 м
[Cu hum Ac trans]
+25.7 +10.0 37 +26 +37 жарко 1006.6 939.5
ЮЗ 1 20 км 6/4 1000 м
[Cu hum Ac trans]
+25.0 +11.1 42 +26 +38 жарко 1006.1 939.1
В 1 20 км 6/4 1000 м
[Cu med, cong Ac trans]
+26.3 +10.0 36 +27 +37 жарко 1005.7 938.6
В 2
{5}
20 км 6/4 1200 м
[Cu med, cong Ac trans]
+25.8 +10.2 37 +27 +33 жарко 1005.3 938.0
Ю 2 20 км 8/5 1000 м
[Cu med, cong Ac trans]
+26.5 +9.2 34 +27 +28 жарко 1004.6 937.2
Ю 2 20 км 8/5 1000 м
[Cu med, cong Ac trans]
+26.4 +10.1 36 +27 +30 жарко 1005.2 937.8
Ю 4
{8}
20 км 6/4 1200 м
[Cu med, cong Ac trans]
+26.3 +9.0 34 +27 +27 жарко 1004.5 937.2
Ю 2 20 км 8/5 1000 м
[Cu med, cong Ac trans]
+24.4 +7.7 34 +25 +25 комфорт 1005.1 937.5
Ю 2 20 км 8/5 1000 м
[Cu med, cong Ac trans]
+20.9 +9.8 49 +23 +23 комфорт 1006.2 938.1
Ю 3
{8}
20 км 6/4 1200 м
[Cu med, cong Ac trans]
+19.6 +9.3 51 +21 +21 комфорт 1006.6 938.4 +27.8
Ю 2 20 км 6/4 1000 м
[Cu med, cong Ac trans]
+21.0 +9.4 47 +23 +23 комфорт 1006.3 938.7
Ю 4 20 км 6/4 1000 м
[Cu med, cong Ac trans]
+21.9 +9.2 44 +23 +23 комфорт 1006.2 938.6
ЮВ 1
{6}
20 км 6/4 1200 м
[Cu med, cong Ac trans]
+17.0 +10.0 63 +19 +19 1006.6 938.7
В 2 20 км 6/4 1000 м
[Cu hum Ac trans]
+16.0 +10.2 68 +16 +16 1006.7 938.6
В 1 20 км 6/4 1000 м
[Cu med, cong Ac trans]
+16.4 +9.9 65 +17 +17 1006.1 938.2
штиль 0
{6}
20 км 6/4 1200 м
[Cu hum Ac trans]
+15.2 +9.7 70 +15 +15 1006.2 938.1
В 1 20 км 6/4 1000 м
[Cu hum Ac trans]
+13.6 +10.1 79 +14 +14 1005.2 937.1
СВ 1 20 км 6/4 1000 м
[Cu hum Ac trans]
+15.2 +9.7 70 +16 +16 1005.5 937.5
штиль 0
{3}
20 км 5/5 1200 м
[Cu med, cong]
+13.2 +10.2 82 +13 +13 1004.9 936.7
В 1 20 км 6/4 1000 м
[Cu hum Ac trans]
+18.2 +11.7 66 +20 +22 1004.4 936.6
ЮВ 1 20 км 6/4 1000 м
[Cu hum Ac trans]
+21.2 +13.4 61 +24 +28 комфорт 1004.1 936.3
В 4
{5}
20 км 6/5 1200 м
[Cu med, cong Ac trans]
+25.2 +11.8 43 +27 +30 жарко 1002.8 935.4 +11.7
ЮВ 5 20 км 8/6 1000 м
[Cu med, cong Ac und]
+26.5 +9.8 35 +27 +30 жарко 1001.5 934.5
ЮВ 5 20 км 8/5 1000 м
[Cu med, cong Ac und]
+26.8 +9.4 33 +27 +29 жарко 1001.8 934.9
ЮВ 5
{13}
10 км в посл. час ливневой дождь 9/6 900 м
[Cb cap Ac und]
+26.5 +11.0 38 +27 +29 жарко 1001.0 933.6
ЮВ 7 10 км гроза, ливневой дождь 9/8 600 м
[Cb cap Ac und]
+23.5 +10.5 44 +25 +26 комфорт 1002.4 934.4
ЮВ 5 8000 м гроза, ливневой дождь 9/8 600 м
[Cb cap Ac und]
+17.7 +15.4 86 +17 +18 1005.6 936.7
В 2
{17}
8000 м гроза, ливневой дождь туман 9/8 750 м
[Cb cap Ac As]
+17.5 +16.6 94 +18 +20 1005.8 936.8 4
С 2 10 км гроза, ливневой дождь 9/8 600 м
[Cb cap Ac und]
+16.6 +16.0 96 +17 +18 1005.7 936.4
штиль 0 8000 м гроза, ливневой дождь 9/8 600 м
[Cb cap Ac und]
+15.9 +15.6 98 +16 +17 1006.3 937.0
С 3
{7}
8000 м гроза, ливневой дождь 9/8 750 м
[Cb cap Ac und]
+15.6 +14.8 95 +15 +15 1005.2 935.7
З 2 4000 м гроза, ливневой дождь 9/9 600 м
[Cb cap]
+14.2 +14.2 100 +14 +14 1003.9 935.0
В 2 20 км в посл. час гроза 8/6 600 м
[Cb cap Ac und]
+13.3 +13.3 100 +13 +13 1003.6 934.9
Ю 2
{7}
20 км {гроза} 5/5 900 м
[Cb cap]
+12.9 +12.9 100 +12 +12 1003.6 935.4 +27.9 32
З 2 20 км 4/4 1000 м
[Cu med, cong]
+13.4 +13.3 99 +13 +13 1003.7 935.7
штиль 0 20 км 4/4 1000 м
[Cu med, cong]
+12.9 +12.8 99 +12 +12 1003.7 935.6
СВ 1
{4}
20 км 5/5 900 м
[Cb cap]
+12.2 +11.6 96 +12 +12 1003.1 935.0
З 4 10 км гроза, ливневой дождь 6/6 600 м
[Cb cap]
+12.4 +11.2 92 +11 +11 1004.6 936.0
СЗ 1 10 км гроза, ливневой дождь 8/8 600 м
[Cb cap]
+12.3 +11.5 95 +12 +12 1006.1 936.7
штиль 0
{8}
20 км в посл. час гроза 6/6 900 м
[Cb cap]
+11.5 +10.8 95 +11 +11 1006.4 936.9 2
СВ 2 20 км 4/4 1000 м
[Cu med, cong]
+10.5 +10.4 99 +9 +9 1007.9 938.0
В 2 20 км 5/5 600 м
[Cb cap]
+10.0 +9.9 99 +8 +8 1007.4 937.4
ЮВ 3
{4}
20 км 4/1 1200 м
[Cu med, cong Ac trans]
+10.7 +10.0 95 +9 +9 1008.8 938.8
штиль 0 20 км 5/3 1000 м
[Cu med, cong Ac trans]
+14.2 +10.5 78 +14 +16 1009.1 939.3
ЮВ 3 20 км 6/4 1000 м
[Cu med, cong Ac trans]
+15.8 +9.3 65 +16 +18 1009.7 940.0
Ю 3
{6}
20 км 8/4 1110 м
[Cu med, cong Ac trans]
+16.9 +8.8 59 +17 +21 1010.0 940.3 +9.7 2 33.8
Ю 3 20 км слаб. ливневой дождь 9/5 1000 м
[Cu med, cong Ac und]
+15.3 +9.7 69 +15 +19 1011.7 941.8
Ю 4 20 км 8/5 1000 м
[Cu med, cong Ac trans]
+16.7 +9.2 61 +16 +19 1010.5 940.8
Ю 4
{7}
20 км в посл. час ливневой дождь 9/5 1200 м
[Cu med, cong Ac und]
+16.2 +8.7 61 +16 +19 1012.3 942.3
Ю 4 20 км 9/5 1000 м
[Cu med, cong Ac und]
+16.1 +8.5 61 +15 +18 1013.2 943.1
Ю 1 20 км слаб. ливневой дождь 9/5 1000 м
[Cu med, cong Ac und]
+16.2 +9.9 66 +17 +22 1013.7 943.6
Ю 2
{7}
20 км в посл. час ливневой дождь 8/5 1200 м
[Cu med, cong Ac trans]
+17.5 +10.1 62 +18 +22 1013.9 943.9 0.0
С 1 20 км в посл. час ливневой дождь 8/6 1000 м
[Cb cap Ac trans]
+15.6 +12.4 81 +16 +18 1015.4 944.9
Ю 2 20 км 9/6 1000 м
[Cu med, cong Ac und]
+18.0 +9.0 56 +19 +21 1014.2 944.0
С 1
{6}
20 км {ливн. осадки} 8/6 1200 м
[Cu med, cong Ac trans]
+16.6 +11.5 72 +17 +18 1015.9 945.5
В 1 20 км 8/8 1000 м
[Cu med, cong]
+16.0 +13.0 82 +17 +17 1015.7 945.7
В 1 20 км 4/4 1000 м
[Cu hum]
+13.6 +11.6 88 +14 +14 1016.8 946.6
штиль 0
{6}
20 км {ливн. осадки} 4/4 1200 м
[Cu hum]
+12.7 +11.9 95 +12 +12 1017.6 947.4 +18.4 0.3
ЮВ 1 20 км ясно +10.2 +10.0 99 +10 +10 1018.6 947.8
штиль 0 20 км ясно +11.9 +11.3 96 +11 +11 1018.3 947.9
ЮВ 1
{2}
20 км ясно +9.6 +8.8 95 +9 +9 1018.7 947.9
штиль 0 20 км ясно +9.6 +9.6 100 +9 +9 1018.7 947.9
ЮВ 2 20 км ясно +8.2 +8.1 99 +6 +6 1018.9 947.9
ЮВ 1
{2}
20 км ясно +7.5 +7.3 99 +6 +6 1018.8 947.9
штиль 0 20 км ясно +7.6 +7.6 100 +6 +6 1019.8 948.6
штиль 0 20 км ясно +7.5 +7.4 99 +6 +6 1019.0 948.2
ЮВ 1
{2}
100 м туман ?/? +8.6 +8.6 100 +9 +9 1019.8 948.9
штиль 0 200 м туман ?/? +10.1 +10.1 100 +9 +9 1019.9 949.1
штиль 0 900 м туман 5/5 50 м
[St]
+11.8 +11.8 100 +11 +16 1020.2 949.3
З 1
{2}
10 км в посл. час туман 3/3 450 м
[St]
+16.1 +12.9 81 +17 +26 1019.5 949.0 +6.7 0.3
СЗ 1 20 км 1/1 1000 м
[Cu hum]
+20.4 +11.2 55 +23 +43 комфорт 1018.6 948.4
З 1 20 км ясно +18.0 +11.8 67 +19 +37 опасность
простуды
1019.0 948.7
СЗ 1
{4}
20 км ясно +21.6 +10.4 49 +23 +47 комфорт 1018.0 947.9
СЗ 1 20 км ясно +23.3 +10.4 44 +25 +49 комфорт 1017.2 947.4
ЮВ 1 20 км 1/0
[Ci fib]
+24.4 +10.0 40 +25 +45 комфорт 1016.6 946.8
СЗ 1
{4}
20 км 3/0
[Ci sp]
+25.4 +11.2 41 +27 +42 жарко 1016.0 946.3
ЮВ 1 20 км 5/0
[Ci sp]
+25.2 +11.1 41 +26 +32 жарко 1015.1 945.4
Ю 1 20 км 4/0
[Ci sp]
+25.6 +9.1 35 +26 +36 жарко 1015.3 945.7
ЮЗ 1
{3}
20 км 5/0
[Ci sp]
+26.1 +10.4 37 +27 +29 жарко 1014.6 945.2
Ю 1 20 км 5/0
[Ci sp]
+23.3 +12.4 50 +26 +26 жарко 1015.3 945.7
штиль 0 20 км 4/0
[Ci]
+18.6 +13.5 72 +19 +19 1015.8 945.8
ЮВ 2
{3}
20 км 4/0
[Ci]
+14.9 +13.2 90 +15 +15 1016.2 946.2 +26.3
В 1 20 км 5/0
[Ci]
+14.1 +12.4 89 +14 +14 1016.0 946.5
ЮВ 1 20 км 4/0
[Ci]
+14.3 +13.0 92 +15 +15 1016.2 946.4
ЮВ 1
{2}
20 км 4/0
[Ci]
+11.9 +11.3 96 +12 +12 1016.3 946.6
ЮВ 1 20 км 4/0
[Ci]
+11.2 +10.9 98 +12 +12 1015.9 946.4
ЮВ 2 20 км ясно +11.1 +10.7 97 +10 +10 1015.8 946.4
ЮВ 1
{2}
20 км ясно +10.6 +10.4 99 +11 +11 1015.7 946.4
В 1 20 км 4/0
[Ci sp]
+9.3 +9.1 99 +9 +9 1016.2 946.7
штиль 0 20 км ясно +10.5 +10.4 99 +10 +10 1015.9 946.6
ЮВ 1
{2}
20 км 5/0
[Ci sp]
+11.0 +10.7 98 +11 +11 1016.2 947.0
штиль 0 20 км 6/0
[Ci]
+14.9 +12.9 88 +15 +18 1016.4 947.3
З 1 20 км 4/0
[Ci]
+17.3 +13.8 80 +19 +27 1016.9 947.5
З 1
{3}
20 км 3/3 1200 м
[Cu hum]
+20.5 +14.4 68 +24 +33 комфорт 1017.1 947.6 +9.3
СВ 1 20 км 3/3 1000 м
[Cu hum]
+24.8 +14.1 51 +27 +43 жарко 1016.2 947.2
З 1 20 км 3/0
[Ci fib]
+23.1 +13.9 56 +27 +45 душно 1016.7 947.5
В 1
{3}
20 км 3/3 1200 м
[Cu hum]
+26.6 +15.4 50 +29 +48 жарко 1015.8 946.8
С 1 20 км 3/3 1000 м
[Cu hum]
+28.5 +11.4 35 +29 +47 жарко 1015.1 946.3
ЮЗ 1 20 км 1/1 1000 м
[Cu hum]
+30.7 +7.0 23 +29 +48 жарко 1014.4 945.9
С 1
{3}
20 км 3/3 1200 м
[Cu hum]
+31.4 +7.8 23 +30 +42 жарко 1013.9 945.4
СВ 2 20 км 3/3 1000 м
[Cu hum]
+30.5 +6.6 22 +29 +33 жарко 1013.4 944.7
В 1 20 км ясно +30.9 +4.6 19 +29 +39 жарко 1013.6 945.1
С 2
{4}
20 км ясно +29.7 +9.7 29 +30 +31 жарко 1013.2 944.6
СВ 1 20 км ясно +27.5 +9.9 33 +28 +28 жарко 1013.0 944.6
В 2 20 км ясно +21.9 +12.9 57 +25 +25 комфорт 1013.5 944.7
В 1
{4}
20 км ясно +19.0 +12.4 66 +21 +21 комфорт 1013.6 944.8 +31.8
ЮВ 2 20 км ясно +15.4 +11.4 77 +16 +16 1013.1 944.5
ЮВ 2 20 км ясно +15.5 +12.8 84 +16 +16 1013.6 944.7
штиль 0
{3}
20 км ясно +15.1 +11.4 79 +15 +15 1012.8 944.4
штиль 0 20 км ясно +14.0 +10.8 81 +14 +14 1012.9 944.5
В 1 20 км 4/0
[Ci fib]
+15.2 +10.5 74 +16 +16 1012.4 944.5
В 1
{3}
20 км 4/0
[Ci fib]
+13.8 +10.5 80 +14 +14 1012.6 944.6
ЮВ 1 20 км 4/0
[Ci fib]
+13.6 +11.4 87 +15 +15 1012.2 944.1
ЮВ 2 20 км 4/0
[Ci fib]
+11.4 +10.4 94 +10 +10 1012.9 944.5
штиль 0
{3}
20 км 8/5 1200 м
[Sc Ac trans]
+14.6 +12.3 86 +14 +15 1011.9 943.8
В 2 20 км 8/5 1000 м
[Sc Ac trans]
+19.9 +12.0 60 +22 +23 комфорт 1011.0 943.3
В 3 20 км 4/0
[Ci fib]
+24.0 +10.7 43 +25 +30 комфорт 1010.9 943.1
СВ 2
{6}
20 км 4/1 1200 м
[Cu med, cong Ac trans]
+26.5 +10.6 37 +27 +35 жарко 1010.8 942.9 +11.3
В 1 20 км в посл. час ливневой дождь 6/3 1000 м
[Cu med, cong Ac lent]
+26.4 +12.3 42 +28 +39 жарко 1010.9 942.6
З 2 20 км в посл. час ливневой дождь 9/5 600 м
[Cb cap Ac und]
+22.0 +13.1 57 +25 +28 комфорт 1014.3 945.3
В 2
{15}
20 км {ливн. осадки} 6/4 1200 м
[Cu med, cong Ac trans]
+31.0 +13.9 35 +32 +42 жарко 1009.4 941.7
В 5 20 км 5/4 1000 м
[Cu med, cong Ac trans]
+29.5 +12.7 36 +31 +37 жарко 1009.2 941.2
В 4 20 км 8/4 1000 м
[Cu med, cong Ac lent]
+30.7 +11.4 30 +31 +34 жарко 1007.9 940.3
В 4
{15}
20 км {ливн. осадки} 8/1 1200 м
[Cu med, cong Ac lent Cs]
+30.9 +12.9 33 +32 +37 жарко 1007.3 939.6 0.0
В 3 20 км 5/3 1000 м
[Cu med, cong Ac lent]
+30.1 +14.5 39 +32 +34 жарко 1005.8 938.1
В 4 20 км 6/1 1000 м
[Cu med, cong Ac lent Cs]
+32.2 +11.3 28 +32 +37 жарко 1006.7 938.9
В 3
{7}
20 км 5/3 1200 м
[Cu med, cong Ac lent]
+29.9 +14.3 39 +32 +33 жарко 1005.0 937.4
В 2 20 км 4/3 1000 м
[Cu med, cong Ac lent]
+27.0 +14.8 47 +30 +30 душно 1004.2 936.9
В 3 20 км 5/5 1000 м
[Cu med, cong]
+25.0 +13.3 48 +27 +27 жарко 1003.6 936.6
ЮВ 2
{7}
20 км 5/5 1200 м
[Cu med, cong]
+20.8 +14.1 65 +24 +24 комфорт 1004.0 936.8 +32.3 1
В 1 20 км 1/1 1000 м
[Cu med, cong]
+21.0 +12.5 58 +24 +24 комфорт 1004.2 937.0
штиль 0 20 км 3/3 1000 м
[Cu med, cong]
+20.9 +12.9 60 +23 +23 комфорт 1005.0 937.2
В 1
{4}
20 км 1/1 1200 м
[Cu med, cong]
+20.1 +11.1 56 +23 +23 комфорт 1003.5 936.8
В 1 20 км ясно +17.2 +11.9 71 +18 +18 1004.1 936.8
СЗ 1 20 км ясно +19.2 +13.0 67 +21 +21 комфорт 1004.3 937.4
ЮВ 1
{4}
20 км ясно +14.0 +12.6 91 +15 +15 1005.5 937.9
В 2 20 км ясно +12.1 +11.0 93 +11 +11 1006.6 938.6
ЮВ 2 20 км ясно +12.2 +11.4 95 +11 +11 1005.9 938.2
В 2
{3}
20 км ясно +12.9 +11.6 92 +12 +13 1006.8 938.9
штиль 0 20 км ясно +18.7 +13.7 73 +19 +24 1006.8 939.2
СЗ 1 20 км ясно +22.2 +14.1 60 +25 +33 комфорт 1006.8 939.4
СЗ 2
{3}
20 км ясно +24.5 +14.0 52 +27 +39 жарко 1007.4 939.7 +11.6 0.0
СЗ 2 20 км 1/1 1000 м
[Cu hum]
+26.8 +12.3 41 +28 +43 жарко 1007.1 939.7
Местоположение метеостанции Батман (Турция): широта 37.87 долгота 41.17 высота над уровнем моря 540 м.
В архиве по умолчанию представлена погода в Батмане за последнюю неделю. Архивные данные за месяц целиком и за предыдущие месяцы, начиная с января 2011 года, Вы можете получить, выбрав интересующий диапазон дат из раскрывающегося списка и нажав кнопку "Найти!".
*Определитесь, кто Вы:
Внимание! Время в таблицах - всемирное. Для получения местного времени необходимо прибавить поправку, которая равна 2 ч.
Смотрите также архив погоды в соседних городах и на ближайших метеорологических станциях:
Партнеры нашего сайта:      
Пояснения к столбцам:
  • Ветер - указаны скорость ветра в м/с - средняя за 10 мин, порывы в срок и между сроками (в фигурных скобках) и направление, откуда дует ветер: С - северный,
  • СВ - северо-восточный, В - восточный, ЮВ - юго-восточный, Ю - южный, ЮЗ - юго-западный, З - западный, СЗ - северо-западный.
  • Видимость - горизонтальная дальность видимости в метрах или километрах. При видимости от 1 до 10 км при отсутствии осадков обычно наблюдается дымка, при ухудшении видимости до 1 км и менее - туман. В сухую погоду видимость может ухудшаться дымом, пылью или мглою.
  • Явления - указаны атмосферные явления, наблюдавшиеся в срок или в последний час перед сроком; фигурными скобками обозначены явления, наблюдавшиеся между сроками (за 1-3 часа до срока); квадратными скобками обозначены град или гололедные отложения с указанием их диаметра в мм.
  • Облачность - указаны через наклонную черту общая и нижняя облачность в баллах и высота нижней границы облаков в метрах; квадратными скобками обозначены формы облаков: Ci - перистые, Cs - перисто-слоистые, Cc - перисто-кучевые, Ac - высококучевые, As - высокослоистые, Sc - слоисто-кучевые, Ns - слоисто-дождевые, Cu - кучевые, Cb - кучево-дождевые. Подробнее классификацию облаков см. в Атласе облаков (PDF).
  • T - Температура воздуха - температура, измеренная на высоте 2 м над землей.
  • Td - Температура точки росы - температура, при понижении до которой содержащийся в воздухе водяной пар достигнет насыщения.
  • f - Относительная влажность воздуха - влажноcть воздуха, измеренная на высоте 2 м над землей.
  • Te - Эффективная температура - температура, которую ощущает одетый по сезону человек в тени. Характеристика душности погоды. При расчете учитывается влияние влажности воздуха и скорости ветра на теплоощущения человека.
  • Tes - Эффективная температура на солнце - температура, которую ощущает человек, с поправкой на солнечный нагрев. Характеристика знойности погоды. Зависит от высоты солнца над горизонтом, облачности и скорости ветра. Ночью, в пасмурную погоду, а также при ветре 12 м/с и более поправка равна нулю.
  • P - Атмосферное давление - приведенное к уровню моря атмосферное давление.
  • Po - Атмосферное давление - измеренное на уровне метеостанции атмосферное давление.
  • Tmin - Минимальная температура - минимум температуры воздуха на высоте 2 м над землей.
  • Tmax - Максимальная температура - максимум температуры воздуха на высоте 2 м над землей.
  • R - Количество осадков - Количество выпавших осадков за период времени, мм. При наведении курсора мыши на число - период времени, за который выпало указанное количество осадков.
  • R24 - Количество осадков - Количество выпавших осадков за 24 часа, мм.
  • S - Снежный покров - Высота снежного покрова, см. При наведении курсора мыши на число - состояние снежного покрова и степень покрытия местности в баллах.